Temp
-12 -12 -12 -11 -11 -11 -11 -11 -11 -11 -11 -11 -11 -11 -12 -12 -12 -12 -12 -12 -12 -13 -12 -13 -13 -13 -12 -13 -13 -13 -13 -13 -13 -14 -14 -14 -14 -14 -14 -14 -14 -14
-12 -12 -12 -11 -11 -11 -11 -11 -11 -11 -11 -11 -12 -12 -12 -12 -12 -12 -12 -12 -12 -12 -12 -13 -13 -12 -12 -13 -13 -13 -13 -13 -14 -14 -14 -14 -14 -14 -14 -14 -14 -14
-12 -12 -12 -11 -11 -11 -11 -11 -11 -11 -12 -12 -12 -12 -12 -12 -12 -12 -12 -13 -12 -12 -12 -12 -12 -12 -13 -13 -13 -13 -13 -14 -14 -14 -14 -14 -14 -14 -14 -14 -14 -14
-12 -12 -12 -12 -11 -11 -11 -11 -11 -11 -12 -12 -12 -12 -12 -12 -12 -12 -13 -13 -13 -12 -12 -12 -12 -13 -13 -13 -13 -13 -14 -14 -14 -14 -14 -14 -14 -14 -14 -14 -14 -14
-12 -12 -12 -12 -11 -12 -12 -12 -11 -12 -12 -12 -12 -12 -12 -12 -12 -12 -12 -12 -13 -12 -12 -12 -13 -13 -13 -13 -13 -13 -14 -14 -14 -14 -14 -14 -14 -14 -14 -14 -14 -14
-12 -12 -12 -12 -12 -12 -12 -12 -12 -12 -12 -12 -12 -12 -12 -12 -12 -12 -12 -12 -12 -12 -12 -12 -13 -12 -13 -13 -13 -14 -14 -14 -14 -14 -14 -14 -14 -14 -14 -15 -15 -15
-12 -12 -12 -12 -12 -12 -12 -12 -12 -12 -12 -12 -12 -12 -12 -12 -12 -12 -12 -13 -13 -13 -13 -13 -13 -13 -13 -13 -14 -14 -14 -14 -14 -14 -14 -14 -14 -14 -15 -15 -15 -15
-12 -12 -12 -12 -12 -12 -12 -12 -12 -12 -12 -12 -12 -12 -12 -12 -12 -12 -12 -12 -12 -13 -13 -13 -13 -13 -13 -13 -14 -14 -14 -14 -14 -14 -14 -14 -15 -15 -15 -15 -15 -15
-12 -12 -12 -12 -12 -12 -12 -12 -12 -12 -12 -12 -12 -12 -12 -12 -12 -12 -12 -12 -12 -13 -13 -13 -13 -13 -14 -14 -14 -14 -14 -14 -14 -14 -15 -15 -15 -15 -15 -15 -15 -15
-12 -12 -12 -12 -12 -12 -12 -12 -12 -12 -12 -12 -12 -12 -12 -12 -12 -12 -12 -12 -12 -13 -13 -13 -13 -14 -14 -14 -14 -14 -14 -15 -15 -15 -15 -15 -15 -15 -15 -15 -15 -15
-12 -12 -12 -12 -12 -12 -12 -12 -12 -12 -12 -12 -12 -12 -12 -12 -12 -12 -12 -13 -13 -13 -13 -13 -14 -14 -14 -14 -14 -15 -15 -15 -15 -15 -15 -15 -15 -15 -15 -15 -15 -15
-12 -12 -12 -12 -12 -12 -12 -12 -12 -12 -12 -12 -12 -12 -12 -12 -12 -13 -13 -13 -13 -13 -13 -14 -14 -14 -14 -14 -15 -15 -15 -15 -15 -15 -15 -15 -15 -15 -15 -15 -15 -15
-12 -12 -12 -12 -12 -12 -12 -12 -12 -12 -12 -12 -12 -12 -12 -12 -13 -13 -13 -13 -13 -13 -14 -14 -14 -14 -14 -15 -15 -15 -15 -15 -15 -15 -15 -15 -15 -15 -15 -15 -15 -15
-12 -12 -12 -12 -12 -12 -12 -12 -12 -12 -12 -12 -13 -13 -13 -13 -13 -13 -13 -13 -13 -14 -14 -14 -14 -14 -14 -14 -14 -14 -15 -15 -15 -15 -15 -15 -15 -15 -15 -15 -15 -15
-12 -12 -12 -12 -12 -12 -12 -12 -12 -12 -12 -12 -12 -13 -13 -13 -13 -13 -13 -13 -13 -14 -14 -14 -14 -14 -14 -14 -14 -14 -14 -15 -15 -15 -15 -15 -15 -15 -15 -15 -15 -15
-12 -12 -12 -12 -12 -12 -12 -12 -12 -12 -12 -12 -12 -12 -12 -13 -13 -13 -13 -13 -13 -13 -14 -14 -14 -14 -14 -14 -14 -14 -14 -15 -15 -15 -15 -15 -15 -15 -15 -15 -15 -15
-12 -12 -12 -12 -12 -12 -12 -12 -12 -12 -12 -12 -12 -12 -12 -13 -13 -13 -13 -13 -13 -13 -13 -13 -13 -14 -14 -14 -14 -14 -14 -14 -14 -15 -15 -15 -15 -15 -15 -15 -15 -15
-13 -12 -13 -13 -13 -13 -13 -13 -13 -12 -12 -12 -12 -12 -13 -13 -13 -13 -13 -13 -13 -13 -13 -13 -13 -13 -14 -14 -14 -14 -14 -14 -14 -15 -15 -15 -15 -15 -15 -15 -15 -15
-13 -13 -13 -13 -13 -13 -13 -13 -13 -13 -13 -13 -13 -13 -13 -13 -13 -13 -13 -13 -13 -13 -13 -13 -13 -14 -14 -14 -14 -14 -14 -14 -14 -15 -15 -15 -15 -15 -15 -15 -15 -15
-13 -13 -13 -13 -13 -13 -13 -13 -13 -13 -13 -13 -13 -13 -13 -13 -13 -13 -13 -13 -13 -13 -13 -13 -14 -14 -14 -14 -14 -14 -14 -14 -14 -15 -15 -15 -15 -15 -15 -15 -15 -15
-13 -13 -13 -13 -13 -13 -13 -13 -13 -13 -13 -13 -13 -13 -13 -13 -13 -13 -13 -13 -13 -13 -13 -14 -14 -14 -14 -14 -14 -14 -14 -14 -15 -15 -15 -15 -15 -15 -15 -15 -15 -15
-13 -13 -13 -13 -13 -13 -13 -13 -13 -13 -13 -13 -13 -13 -13 -13 -13 -13 -13 -13 -14 -14 -14 -14 -14 -14 -14 -14 -14 -14 -14 -15 -15 -15 -15 -15 -15 -15 -15 -15 -15 -15
-13 -13 -13 -13 -13 -13 -13 -13 -13 -13 -13 -13 -13 -13 -13 -13 -13 -13 -14 -14 -14 -14 -14 -14 -14 -14 -14 -14 -14 -15 -15 -15 -15 -15 -15 -15 -15 -15 -15 -15 -15 -16
-13 -13 -13 -13 -13 -13 -13 -13 -13 -13 -13 -13 -13 -13 -13 -14 -14 -14 -14 -14 -14 -14 -14 -14 -14 -14 -14 -15 -15 -15 -15 -15 -15 -15 -15 -15 -15 -15 -15 -15 -15 -16
-14 -13 -13 -13 -13 -13 -13 -13 -13 -13 -13 -14 -14 -14 -14 -14 -14 -14 -14 -14 -14 -14 -14 -14 -14 -14 -15 -15 -15 -15 -15 -15 -15 -15 -15 -15 -15 -15 -16 -16 -16 -16
-14 -14 -13 -13 -13 -14 -14 -14 -14 -14 -14 -14 -14 -14 -14 -14 -14 -14 -14 -14 -14 -14 -14 -14 -14 -14 -15 -15 -15 -14 -15 -15 -15 -15 -15 -15 -15 -15 -16 -16 -16 -16
Height
5815 5815 5815 5815 5814 5813 5812 5812 5812 5811 5811 5810 5809 5809 5809 5808 5808 5808 5808 5808 5809 5809 5809 5809 5809 5810 5810 5811 5812 5813 5814 5814 5815 5816 5816 5816 5816 5817 5817 5816 5817 5816
5812 5813 5812 5812 5811 5811 5810 5810 5809 5809 5808 5807 5807 5806 5806 5805 5805 5805 5805 5805 5805 5805 5806 5806 5807 5807 5808 5809 5810 5810 5811 5812 5813 5814 5814 5814 5815 5815 5815 5815 5815 5814
5809 5809 5809 5809 5808 5808 5808 5807 5807 5806 5806 5805 5804 5803 5803 5802 5802 5802 5801 5801 5801 5802 5802 5803 5804 5805 5806 5808 5808 5808 5809 5810 5811 5812 5812 5813 5813 5813 5813 5813 5813 5812
5806 5806 5806 5806 5806 5806 5806 5805 5805 5804 5803 5802 5801 5800 5800 5800 5799 5799 5799 5799 5799 5799 5800 5800 5802 5803 5804 5805 5805 5806 5807 5809 5810 5810 5811 5811 5811 5811 5811 5811 5811 5810
5804 5803 5803 5803 5803 5803 5803 5803 5802 5802 5801 5799 5799 5798 5797 5797 5797 5797 5797 5797 5797 5797 5798 5799 5800 5801 5802 5803 5803 5804 5806 5807 5808 5808 5809 5809 5809 5809 5809 5809 5808 5808
5801 5801 5801 5801 5801 5801 5801 5800 5800 5799 5798 5797 5797 5796 5795 5795 5794 5794 5795 5795 5795 5796 5796 5797 5799 5800 5800 5801 5802 5803 5805 5806 5806 5807 5807 5807 5807 5807 5807 5807 5806 5805
5800 5799 5799 5799 5799 5798 5798 5798 5797 5797 5796 5795 5795 5794 5794 5793 5793 5793 5793 5793 5794 5794 5795 5796 5797 5798 5798 5799 5801 5802 5803 5804 5805 5805 5806 5806 5806 5806 5805 5804 5804 5803
5798 5797 5797 5797 5797 5796 5796 5796 5795 5795 5794 5794 5793 5793 5793 5792 5792 5792 5792 5792 5792 5793 5793 5794 5795 5796 5797 5798 5800 5801 5802 5803 5803 5804 5804 5804 5804 5803 5803 5802 5802 5801
5795 5795 5795 5795 5795 5795 5795 5794 5794 5793 5793 5793 5792 5792 5792 5791 5791 5791 5791 5791 5791 5791 5792 5793 5794 5795 5796 5798 5799 5800 5801 5801 5802 5802 5802 5802 5801 5801 5800 5800 5799 5799
5793 5793 5793 5793 5793 5793 5793 5793 5792 5792 5792 5792 5791 5791 5791 5790 5790 5790 5791 5791 5791 5791 5792 5793 5793 5795 5796 5797 5798 5798 5799 5800 5800 5800 5800 5799 5799 5798 5798 5797 5796 5796
5791 5791 5791 5792 5792 5792 5792 5791 5791 5791 5791 5791 5790 5790 5790 5790 5790 5790 5790 5790 5790 5791 5791 5792 5793 5794 5795 5796 5796 5797 5797 5798 5798 5797 5797 5797 5796 5796 5795 5794 5793 5793
5788 5789 5789 5790 5790 5790 5790 5790 5790 5790 5790 5790 5789 5789 5789 5789 5790 5790 5790 5790 5790 5790 5791 5792 5793 5793 5793 5794 5794 5795 5795 5795 5795 5795 5794 5794 5793 5793 5792 5791 5790 5790
5787 5787 5788 5788 5788 5789 5789 5789 5789 5789 5789 5789 5789 5789 5789 5789 5789 5789 5790 5790 5790 5790 5790 5791 5791 5792 5792 5792 5792 5792 5793 5792 5792 5792 5792 5791 5791 5790 5789 5788 5787 5786
5785 5785 5786 5787 5787 5787 5788 5788 5788 5788 5788 5788 5788 5788 5788 5788 5788 5789 5789 5789 5789 5789 5789 5790 5790 5790 5790 5790 5790 5790 5790 5790 5789 5789 5789 5789 5788 5787 5786 5785 5784 5783
5783 5783 5784 5785 5785 5786 5786 5787 5787 5787 5787 5787 5787 5787 5787 5787 5787 5788 5788 5788 5788 5788 5788 5788 5788 5788 5788 5788 5788 5787 5787 5787 5787 5787 5786 5786 5785 5784 5783 5782 5781 5779
5781 5782 5783 5783 5784 5784 5785 5785 5786 5786 5786 5786 5786 5786 5786 5786 5786 5786 5786 5787 5786 5786 5786 5786 5786 5786 5786 5785 5785 5785 5785 5784 5784 5784 5784 5783 5782 5781 5780 5779 5778 5776
5779 5780 5781 5782 5782 5783 5783 5784 5784 5784 5785 5785 5785 5785 5784 5785 5785 5785 5785 5785 5785 5785 5785 5784 5784 5783 5783 5783 5783 5783 5782 5782 5782 5782 5781 5780 5779 5778 5777 5776 5774 5773
5778 5779 5779 5780 5780 5781 5782 5782 5782 5783 5783 5783 5783 5783 5783 5783 5783 5783 5783 5783 5783 5783 5783 5782 5782 5781 5781 5781 5780 5780 5780 5779 5779 5779 5778 5777 5775 5775 5774 5772 5771 5770
5776 5776 5777 5778 5778 5779 5780 5780 5780 5781 5781 5781 5781 5781 5781 5781 5781 5781 5781 5781 5781 5781 5780 5780 5779 5779 5778 5778 5778 5777 5777 5776 5776 5776 5775 5774 5772 5772 5770 5769 5767 5766
5774 5774 5775 5775 5776 5777 5777 5778 5778 5778 5779 5779 5779 5779 5779 5779 5779 5779 5779 5779 5779 5778 5778 5777 5776 5776 5776 5775 5775 5774 5774 5773 5773 5772 5771 5770 5769 5768 5767 5765 5764 5762
5771 5772 5772 5773 5774 5774 5775 5775 5776 5776 5776 5776 5776 5776 5776 5776 5777 5777 5776 5776 5776 5775 5775 5774 5773 5773 5773 5772 5771 5771 5770 5770 5769 5769 5768 5766 5765 5764 5763 5761 5760 5758
5769 5769 5770 5771 5771 5772 5773 5773 5773 5774 5774 5774 5774 5774 5774 5774 5774 5774 5774 5773 5773 5773 5772 5770 5769 5770 5769 5768 5768 5767 5767 5766 5766 5765 5764 5762 5761 5760 5759 5757 5756 5754
5766 5766 5767 5768 5768 5769 5770 5770 5770 5771 5771 5771 5771 5771 5771 5772 5771 5771 5771 5771 5770 5770 5768 5767 5765 5766 5765 5765 5764 5763 5763 5762 5761 5760 5759 5758 5757 5756 5754 5753 5752 5750
5762 5763 5764 5765 5765 5766 5767 5767 5767 5768 5768 5768 5768 5769 5769 5769 5768 5768 5767 5768 5767 5766 5765 5763 5761 5761 5761 5760 5759 5758 5758 5758 5757 5756 5755 5754 5752 5751 5750 5749 5748 5746
5760 5761 5762 5762 5763 5763 5764 5764 5765 5765 5765 5765 5765 5765 5765 5765 5765 5764 5764 5764 5763 5762 5760 5758 5757 5756 5755 5755 5755 5754 5754 5754 5753 5752 5751 5749 5748 5747 5746 5745 5743 5742
5757 5759 5760 5760 5760 5760 5760 5761 5762 5762 5762 5762 5762 5762 5762 5761 5761 5760 5760 5759 5758 5758 5756 5755 5755 5753 5752 5751 5751 5750 5749 5749 5749 5748 5747 5746 5745 5744 5742 5741 5739 5738
Wind_Speed
21 21 20 20 20 21 21 20 19 18 17 15 16 16 18 19 20 21 22 20 19 20 19 17 15 14 16 17 16 16 16 16 15 13 12 13 13 13 12 13 13 14
21 20 20 20 21 21 21 20 19 17 17 16 17 17 18 19 19 20 20 20 20 20 18 17 15 15 18 18 16 16 16 15 13 12 13 14 13 12 12 13 14 15
20 20 20 20 20 20 20 18 17 17 16 17 18 18 18 17 17 16 17 19 19 17 16 16 14 15 17 17 16 16 16 14 13 13 13 12 12 12 12 13 14 15
19 19 19 20 20 19 17 15 15 15 16 17 17 17 16 16 15 14 15 16 15 15 14 13 13 14 15 15 16 17 15 13 13 12 11 11 11 12 13 14 15 15
18 18 19 19 18 16 14 12 13 14 16 17 16 15 15 14 14 14 14 13 13 12 11 11 11 12 13 15 16 15 12 12 12 11 10 11 12 13 14 15 15 16
16 17 18 18 16 14 12 12 12 13 14 14 13 12 12 11 12 11 11 10 8 7 7 9 11 12 13 14 12 10 10 11 10 10 10 11 13 14 14 15 16 16
15 16 17 16 14 13 12 11 10 10 10 10 10 9 8 7 6 6 6 6 5 5 7 10 12 11 10 9 9 9 10 9 9 9 11 12 13 13 14 16 17 17
14 14 14 13 11 10 9 8 7 7 8 8 8 7 7 6 5 4 4 4 4 5 7 9 9 7 7 8 9 9 9 8 9 10 11 12 12 14 15 16 17 18
13 12 12 10 9 8 8 7 7 8 9 8 6 6 6 5 5 4 3 3 3 4 5 6 7 8 8 8 8 8 8 8 9 10 10 11 13 14 15 16 17 18
12 11 9 8 8 8 8 9 10 10 9 8 6 5 5 4 4 3 3 3 4 5 6 7 7 7 7 7 7 7 7 8 9 10 11 12 13 15 16 17 18 19
11 10 9 8 7 8 10 10 11 10 9 7 5 4 3 3 3 3 3 3 4 5 6 6 6 6 6 5 6 7 8 9 10 11 12 13 15 16 17 18 20 21
11 10 8 8 9 10 10 11 10 10 8 6 5 4 4 4 4 5 5 4 4 5 5 5 5 6 5 5 6 8 9 10 11 13 14 15 17 18 19 21 22 23
11 10 9 9 9 10 10 10 10 9 8 6 5 6 6 6 5 6 6 5 5 4 4 5 6 6 6 7 8 10 11 12 13 14 16 17 19 20 21 22 23 24
11 10 9 9 10 11 10 10 10 9 8 7 7 7 7 6 6 6 7 6 5 5 5 6 7 8 8 9 11 12 13 14 15 16 17 19 20 21 22 23 23 25
12 12 11 10 10 11 11 10 10 9 8 8 8 8 8 7 6 7 7 7 6 6 7 8 9 10 11 12 13 14 14 15 16 18 19 20 21 23 23 23 25 27
14 13 12 11 11 12 12 11 10 10 9 9 9 9 8 8 8 8 8 8 8 8 9 10 11 12 13 14 15 16 16 18 18 19 20 21 23 24 24 25 26 28
14 14 13 13 13 13 13 13 12 11 10 10 10 10 10 9 9 9 10 10 11 11 12 13 14 15 16 17 18 18 19 20 20 21 21 23 25 25 26 27 28 29
14 14 14 14 14 14 14 14 13 13 12 12 12 11 11 11 11 11 11 12 13 14 15 16 17 18 19 20 20 21 22 22 22 22 23 25 26 27 27 28 29 30
14 15 15 15 15 15 14 15 15 15 14 14 13 13 13 14 13 13 13 14 15 16 17 18 20 21 22 22 23 24 24 25 25 24 25 26 27 28 29 29 30 31
14 15 16 16 16 16 16 16 16 16 16 16 16 16 16 16 16 16 16 16 17 18 19 21 23 24 24 25 26 26 26 27 27 26 27 27 28 29 30 31 32 32
15 15 16 16 16 16 17 17 17 17 18 18 18 18 18 18 18 18 19 19 20 21 22 24 26 26 26 27 28 28 28 28 28 28 28 29 29 30 31 32 33 32
15 15 16 16 16 16 17 17 18 18 18 19 20 20 20 20 20 20 21 21 22 23 25 27 29 28 29 30 30 30 29 29 30 30 31 31 31 32 32 33 33 32
16 16 17 17 17 17 18 18 18 19 19 20 20 20 20 20 20 21 22 23 23 25 27 30 32 32 32 32 32 32 31 30 30 30 31 31 32 32 32 33 33 32
17 17 18 18 18 19 19 19 20 20 20 20 20 20 21 21 22 23 24 25 26 28 30 33 35 35 34 33 34 35 32 28 26 27 28 28 29 30 32 33 33 32
18 18 18 19 20 20 21 21 21 21 21 21 21 21 22 22 24 25 26 27 28 29 31 32 33 35 36 33 33 34 30 25 24 26 26 26 27 29 31 32 32 32
15 16 17 18 20 21 22 21 21 21 22 22 23 23 24 25 26 27 27 27 27 27 29 30 30 32 34 31 29 29 26 25 26 27 27 27 28 29 31 32 32 32
Wind_Direction
282 287 289 288 289 289 291 296 297 294 295 299 301 300 296 289 283 280 277 276 274 270 269 270 266 262 258 254 252 253 258 264 264 258 249 239 236 243 255 265 273 281
283 285 286 287 287 288 291 296 295 293 293 296 298 298 297 292 286 282 277 272 271 268 263 260 260 258 252 248 250 254 257 259 255 246 238 235 240 251 261 270 278 285
284 283 283 284 284 287 292 295 295 296 297 298 298 297 296 294 290 285 277 270 268 267 263 256 253 250 246 247 252 255 254 251 246 241 237 239 249 259 268 275 281 287
282 282 280 279 282 288 293 294 297 302 302 301 300 299 296 292 288 284 279 272 267 267 262 251 241 240 243 248 253 252 250 246 241 238 240 247 258 266 272 278 283 290
277 276 276 277 282 290 293 297 303 305 303 303 303 301 297 290 284 282 279 273 267 262 254 243 239 239 244 255 258 252 243 237 233 235 244 255 263 269 275 280 287 294
271 270 272 277 284 291 297 303 307 305 304 305 306 308 306 295 284 280 275 266 257 247 237 239 246 248 251 258 254 237 227 227 232 242 254 261 267 272 279 288 295 299
264 265 270 277 284 292 299 304 306 307 309 308 306 309 318 312 295 284 269 253 250 255 254 253 254 253 248 235 217 213 221 228 239 252 260 265 272 281 291 297 301 302
261 264 268 274 283 290 296 301 302 304 308 310 304 298 302 301 293 292 281 259 251 253 253 247 237 226 210 199 202 214 224 233 246 256 264 274 285 295 300 302 302 303
260 262 263 269 276 281 286 288 289 294 301 306 303 295 291 287 283 285 275 246 210 202 205 201 193 190 191 197 207 219 230 245 256 265 277 289 297 301 303 304 305 306
257 258 258 262 266 270 277 280 281 288 295 299 300 298 294 289 285 271 245 214 184 178 179 179 181 186 194 202 215 231 247 258 265 276 287 294 299 302 305 308 308 307
250 252 252 253 258 264 270 275 279 282 286 290 295 297 294 296 289 273 254 222 193 183 179 179 185 194 205 218 235 249 258 265 271 280 286 292 297 301 305 307 306 305
241 243 246 248 253 259 264 270 272 273 276 279 282 286 285 286 283 279 271 247 219 202 192 195 206 217 226 239 250 258 263 270 275 281 286 291 295 300 302 302 303 304
235 236 240 243 247 253 260 264 265 265 268 272 276 281 282 281 282 280 273 256 238 222 214 223 233 240 247 254 260 266 271 276 281 284 288 291 294 297 298 300 303 304
233 233 235 237 242 250 258 262 262 262 263 268 275 280 283 286 286 280 275 268 258 246 242 248 254 257 262 265 269 273 277 281 284 285 287 291 294 295 297 301 305 303
230 231 233 234 239 247 254 258 260 262 264 267 271 277 284 290 288 282 281 280 275 269 265 266 269 270 273 275 276 280 282 283 284 286 290 293 294 295 299 303 303 301
228 229 231 233 236 242 248 252 255 258 262 265 268 274 279 284 286 285 286 289 288 285 283 281 282 281 282 283 284 285 285 285 287 290 293 294 294 297 301 301 300 301
228 229 231 233 235 239 243 248 252 254 259 262 265 270 274 276 278 281 285 290 290 289 289 288 287 285 285 286 286 286 286 287 290 292 294 294 295 298 300 299 300 302
229 230 233 236 239 241 244 248 251 253 256 260 263 267 270 271 273 276 281 285 286 287 288 288 287 286 286 286 286 287 288 290 293 294 295 295 295 297 299 299 299 300
231 233 237 240 243 246 247 249 253 255 258 261 264 266 268 270 271 274 277 281 284 286 287 287 286 285 286 287 288 289 291 293 295 296 295 294 295 297 296 295 296 297
235 237 240 243 246 249 251 253 256 258 260 263 265 267 268 271 273 275 277 280 283 285 286 286 284 285 287 288 289 290 291 293 295 294 294 293 293 293 292 292 294 296
237 239 242 245 247 250 253 256 258 260 261 263 265 266 269 271 274 276 279 281 283 285 286 286 285 286 288 288 288 289 290 292 292 291 291 291 290 290 289 291 295 297
237 240 242 245 248 251 254 257 259 260 261 261 262 264 267 270 273 276 278 280 282 284 285 285 285 286 286 285 286 286 287 288 289 289 288 287 287 287 288 291 294 296
237 238 241 245 249 252 255 258 260 261 260 260 261 263 266 269 272 273 276 278 281 283 283 284 284 284 284 284 284 283 283 285 287 289 288 286 285 286 286 289 293 295
239 242 246 251 254 256 259 260 261 261 261 260 262 263 266 268 270 272 276 278 281 282 282 282 284 285 284 282 281 281 282 285 289 291 289 284 281 283 286 289 292 295
246 250 254 258 260 261 262 261 261 261 261 261 262 264 266 269 272 276 279 281 282 282 282 284 286 287 287 286 287 287 284 284 290 292 289 283 281 283 286 289 291 294
252 257 261 264 265 265 265 264 263 261 259 259 261 264 268 272 276 279 280 281 282 282 284 286 287 288 289 292 298 298 290 285 289 292 289 286 285 285 286 288 291 293